loading
|
Showing default

CHINASAT 4A, 60606

Orbit data source: Space-Track

CHINASAT 4A, 60606 is a payload satellite owned by PLA SSF (CN) in GEO that was launched on Thu, 22 Aug 2024 UTC via a CHANG ZHENG 7A launch vehicle from the Wenchang Satellite Launch Center (WSC). Payloads include a variety of satellites, spacecraft, and rockets equipped with specific instruments for various scientific and technological missions. These include communications satellites like Starlink; space stations such as the ISS; scientific satellites like the Hubble; Earth observation satellites from companies like Planet Labs, Umbra, and HawkEye 360; GPS; miniature CubeSats for education and research; and military/defense satellites.

Next visibility unknown
Loading greatness...
CHINASAT 4A details
Identifier
60606, 2024-151A
Orbit
GEO
Last TLE update8 hours ago
Origin
Flag of CNPLA SSF (CN / PRC)
ManufacturerSISE
Mission statusOperational
MissionUnknown
Bus & MotorFY-4?, LAE
Mass~5,000 kg wet, ~2,500 kg dry
Launch date (UTC)
2024-08-22 (1 month ago)
Launch vehicle
CHANG ZHENG 7A
Launch site
Wenchang Satellite Launch Center (WSC)
Object type
Payload
Rocket body
Debris
Radar Cross SectionRCS unknown

Expand to show TLE details & history

TLE from 8 hours ago
0 CHINASAT 4A
1 60606U 24151A   24261.60104041 -.00000376  00000-0  00000-0 0  9999
2 60606   2.9678 278.1751 0002148 344.3685  69.1530  1.00273971   364
Epoch: 2024-09-17T14:25Z
Definitive object data (Epoch: 2024-09-17T14:25:29.891Z)
Latitude2.39214°
Longitude118.29097°
Altitude35,781.993 km
Speed3.075 km/s
True Right ascension22h 06m 42s
True Declination2° 23' 23"
Sunlit
Object was in daylight at TLE epoch
Predictive object data (real-time)
Latitude0.08923°
Longitude-117.41221°
Altitude35,794.278 km
Speed3.074 km/s
Apparent Right ascension06h 07m 03s
Apparent Declination-4° 59' 31"
Sunlit
Object is in daylight
Predictive observer data (real-time)
Local Sidereal Time15:30:12
Azimuth304.234° NW
Elevation-40.38°
Doppler factor1
Orbital elements
Apogee35,796.105 km
Perigee35,777.991 km
Semi-major axis42,165.185 km
Eccentricity0.0002148
Inclination2.9678°
RAAN278.1751°
Arg. of periapsis344.3685°
True anomaly69.17601°
Mean anomaly69.153°
Eccentric anomaly69.1645°
Mean motion0.25068 °/min
BSTARUnknown
Period1436.12 mins
No data available
Other satellites on launch #151 in the year 2024 (2024-08-22 UTC)

CHINASAT 4A Visibility forecast

Observer location: 39.9160978°, -105.1181434

CHINASAT 4A is not visible in the next 10 days
Span
Click to sort rows by Start time (UTC) header in descending order
Start Az.
Max El. time (UTC)
Max El. Az.
Max El.
End time (UTC)
End Az.